#�ϑ�����,���ϕ���,���ϕ���,�ő啗��,�ő啗����������,�ő�u�ԕ���,�ő�u�ԕ�����������
#(�N����),(m/s)   ,(16����),(m/s)   ,(16����)        ,(m/s)       ,(16����)            
2012/1/27 9:07,0.3,4,0.4,4,0.5,4
2012/1/27 9:08,0.2,4,0.3,4,0.3,5
2012/1/27 9:09,0.1,3,0.2,4,0.1,1
2012/1/27 9:10,0.1,3,0.1,4,0.8,5
2012/1/27 9:11,0.2,4,0.2,4,0.9,7
2012/1/27 9:12,0.2,4,0.2,4,0.5,4
2012/1/27 9:13,0.2,4,0.2,4,0.9,6
2012/1/27 9:14,0.3,4,0.3,4,0.8,3
2012/1/27 9:15,0.2,4,0.3,4,0.6,4
2012/1/27 9:16,0.2,4,0.2,4,0.4,10
2012/1/27 9:17,0.3,4,0.3,5,1.1,6
2012/1/27 9:18,0.3,5,0.3,4,0.9,8
2012/1/27 9:19,0.4,5,0.4,5,0.9,8
2012/1/27 9:20,0.3,6,0.4,5,0.5,8
2012/1/27 9:21,0.3,6,0.3,5,0.8,11
2012/1/27 9:22,0.4,6,0.4,5,2.1,8
2012/1/27 9:23,0.4,6,0.4,5,1.8,8
2012/1/27 9:24,0.5,7,0.5,7,2.4,9
2012/1/27 9:25,0.6,8,0.6,8,2.7,9
2012/1/27 9:26,0.7,8,0.7,8,3.6,9
2012/1/27 9:27,0.9,8,0.9,8,4.5,9
2012/1/27 9:28,1.1,9,1.1,9,4.4,8
2012/1/27 9:29,1.2,9,1.2,9,3.9,9
2012/1/27 9:30,1.3,9,1.3,9,2.4,13
2012/1/27 9:31,1.4,9,1.4,9,1.4,10
2012/1/27 9:32,1.5,9,1.5,9,3.2,9
2012/1/27 9:33,1.6,10,1.6,10,3,10
2012/1/27 9:34,1.5,10,1.6,10,1.8,9
2012/1/27 9:35,1.4,10,1.5,10,1.9,9
2012/1/27 9:36,1.3,10,1.4,10,2.5,8
2012/1/27 9:37,1.2,10,1.3,10,1.6,9
2012/1/27 9:38,1.1,10,1.2,10,1.5,9
2012/1/27 9:39,1,10,1.1,10,2.1,10
2012/1/27 9:40,1,9,1,10,2.5,10
2012/1/27 9:41,1,10,1.1,10,1.4,9
2012/1/27 9:42,1,9,1.1,10,1.4,8
2012/1/27 9:43,0.8,9,0.9,10,1.3,8
2012/1/27 9:44,0.8,9,0.8,10,0.9,16
2012/1/27 9:45,0.9,9,0.9,10,2,8
2012/1/27 9:46,1,9,1,10,2.5,8
2012/1/27 9:47,1,9,1,10,1.8,9
2012/1/27 9:48,0.9,9,1,10,0.6,7
2012/1/27 9:49,0.8,9,0.9,9,1.5,9
2012/1/27 9:50,0.7,9,0.8,9,1.4,9
2012/1/27 9:51,0.8,8,0.8,9,1.8,6
2012/1/27 9:52,0.8,8,0.8,9,2.6,7
2012/1/27 9:53,0.9,8,0.9,9,2.9,8
2012/1/27 9:54,0.9,8,0.9,9,1.6,8
2012/1/27 9:55,0.9,8,1,9,2.6,10
2012/1/27 9:56,0.9,8,1,9,3.5,8
2012/1/27 9:57,1.1,8,1.1,8,4.8,9
2012/1/27 9:58,1.2,8,1.2,8,3.1,9
2012/1/27 9:59,1.3,8,1.3,8,3,9
2012/1/27 10:00,1.3,8,1.3,8,2.5,9
2012/1/27 10:01,1.3,9,1.3,8,2,9
2012/1/27 10:02,1.3,9,1.3,8,1.6,10
2012/1/27 10:03,1.4,9,1.4,9,3.5,9
2012/1/27 10:04,1.5,9,1.5,9,3.8,10
2012/1/27 10:05,1.6,9,1.6,9,3.6,9
2012/1/27 10:06,1.7,10,1.7,10,4.2,11
2012/1/27 10:07,1.8,10,1.8,10,4.9,10
2012/1/27 10:08,1.9,10,1.9,10,3.9,10
2012/1/27 10:09,2,10,2,10,3.2,8
2012/1/27 10:10,1.8,10,2,10,1,11
2012/1/27 10:11,1.8,10,1.8,10,2.2,10
2012/1/27 10:12,1.9,10,1.9,10,2.4,10
2012/1/27 10:13,1.8,10,1.9,10,2.5,11
2012/1/27 10:14,1.6,10,1.7,10,3,9
2012/1/27 10:15,1.6,10,1.6,10,3,9
2012/1/27 10:16,1.5,10,1.6,10,3.8,10
2012/1/27 10:17,1.4,10,1.5,10,3.7,9
2012/1/27 10:18,1.4,10,1.4,10,3.9,8
2012/1/27 10:19,1.4,10,1.4,10,3.5,10
2012/1/27 10:20,1.5,10,1.5,10,2.2,10
2012/1/27 10:21,1.5,10,1.6,10,3.1,9
2012/1/27 10:22,1.6,10,1.6,10,2.4,10
2012/1/27 10:23,1.6,10,1.6,10,3.2,12
2012/1/27 10:24,1.7,10,1.7,10,2.7,11
2012/1/27 10:25,1.6,10,1.7,10,1,13
2012/1/27 10:26,1.5,11,1.6,10,1.8,13
2012/1/27 10:27,1.4,11,1.5,10,1.6,11
2012/1/27 10:28,1.2,11,1.3,10,2.1,9
2012/1/27 10:29,1.2,11,1.2,10,2,10
2012/1/27 10:30,1.1,11,1.1,10,2.2,11
2012/1/27 10:31,1.1,11,1.2,10,2,10
2012/1/27 10:32,1,11,1.1,10,0.9,11
2012/1/27 10:33,0.9,11,1,10,0.9,7
2012/1/27 10:34,0.7,11,0.9,10,0.9,8
2012/1/27 10:35,0.8,10,0.8,10,2.4,10
2012/1/27 10:36,0.7,10,0.8,11,1.3,9
2012/1/27 10:37,0.8,10,0.8,11,2.1,10
2012/1/27 10:38,0.8,10,0.9,11,1.8,10
2012/1/27 10:39,0.8,10,0.8,11,0.6,9
2012/1/27 10:40,0.7,10,0.8,11,2.1,8
2012/1/27 10:41,0.8,10,0.8,11,2.2,10
2012/1/27 10:42,0.9,10,0.9,11,2,9
2012/1/27 10:43,1,10,1,10,2.6,11
2012/1/27 10:44,1.2,10,1.2,10,2.2,11
2012/1/27 10:45,1.3,10,1.3,10,3.1,10
2012/1/27 10:46,1.4,10,1.4,10,2.7,10
2012/1/27 10:47,1.4,10,1.4,10,2.5,8
2012/1/27 10:48,1.4,10,1.4,10,1.3,8
2012/1/27 10:49,1.4,10,1.4,10,2,9
2012/1/27 10:50,1.5,10,1.5,10,3.5,9
2012/1/27 10:51,1.6,10,1.6,10,3.6,8
2012/1/27 10:52,1.8,10,1.8,10,4.2,9
2012/1/27 10:53,1.7,10,1.8,10,3.8,9
2012/1/27 10:54,1.7,10,1.7,10,3.2,11
2012/1/27 10:55,1.8,9,1.8,10,4.1,10
2012/1/27 10:56,1.8,9,1.8,10,4.5,10
2012/1/27 10:57,1.8,10,1.9,9,3.1,9
2012/1/27 10:58,2,10,2,10,3.7,11
2012/1/27 10:59,2.2,10,2.2,10,4.4,10
2012/1/27 11:00,2.2,10,2.2,10,3.5,10
2012/1/27 11:01,2.1,10,2.2,10,4.4,9
2012/1/27 11:02,2.1,10,2.2,10,5.2,9
2012/1/27 11:03,2.2,10,2.2,10,4.4,10
2012/1/27 11:04,2.3,10,2.3,10,3.1,9
2012/1/27 11:05,2.1,10,2.3,10,3,8
2012/1/27 11:06,2,10,2.1,10,2.7,10
2012/1/27 11:07,1.9,10,2,10,1.8,10
2012/1/27 11:08,1.8,9,1.9,10,3.9,8
2012/1/27 11:09,1.7,9,1.8,10,3.7,8
2012/1/27 11:10,1.8,9,1.8,10,4.1,8
2012/1/27 11:11,1.7,9,1.8,10,3.5,10
2012/1/27 11:12,1.7,9,1.7,10,4.4,8
2012/1/27 11:13,1.6,9,1.7,10,4.3,10
2012/1/27 11:14,1.8,9,1.8,10,5.7,8
2012/1/27 11:15,2,9,2,10,6.5,9
2012/1/27 11:16,2.1,8,2.1,9,5.1,9
2012/1/27 11:17,2.4,8,2.4,8,5.8,8
2012/1/27 11:18,2.4,8,2.5,8,5.5,8
2012/1/27 11:19,2.3,8,2.4,8,3.5,9
2012/1/27 11:20,2.1,8,2.3,8,1.5,8
2012/1/27 11:21,2,8,2.1,8,2.2,7
2012/1/27 11:22,2,8,2,8,4.7,11
2012/1/27 11:23,2.2,9,2.2,8,5.1,10
2012/1/27 11:24,2.2,9,2.2,8,5.8,9
2012/1/27 11:25,2.2,9,2.2,8,5.1,10
2012/1/27 11:26,2.2,10,2.2,8,5.4,10
2012/1/27 11:27,2.3,10,2.3,8,5.1,10
2012/1/27 11:28,2.4,10,2.4,8,5.4,9
2012/1/27 11:29,2.5,10,2.5,10,4.7,9
2012/1/27 11:30,2.8,10,2.8,10,5.1,9
2012/1/27 11:31,3,10,3,10,4.9,9
2012/1/27 11:32,3.2,10,3.2,10,5.2,8
2012/1/27 11:33,2.9,10,3.1,10,3.5,9
2012/1/27 11:34,2.7,10,2.9,10,4.1,9
2012/1/27 11:35,2.6,10,2.7,10,4.3,10
2012/1/27 11:36,2.5,9,2.6,10,4.9,8
2012/1/27 11:37,2.5,9,2.5,10,5.4,8
2012/1/27 11:38,2.6,9,2.6,10,5.7,7
2012/1/27 11:39,2.6,8,2.6,10,4.9,8
2012/1/27 11:40,2.6,8,2.6,10,4.7,8
2012/1/27 11:41,2.4,8,2.6,10,3.2,8
2012/1/27 11:42,2.3,8,2.4,10,4.4,8
2012/1/27 11:43,2.5,8,2.5,10,5.8,9
2012/1/27 11:44,2.6,8,2.6,10,6.9,8
2012/1/27 11:45,2.6,8,2.6,10,4.5,11
2012/1/27 11:46,2.7,8,2.7,8,6.3,8
2012/1/27 11:47,2.7,8,2.7,8,5.8,9
2012/1/27 11:48,2.8,8,2.8,8,6.2,8
2012/1/27 11:49,2.8,8,2.8,8,6.2,8
2012/1/27 11:50,2.8,9,2.8,8,5.8,8
2012/1/27 11:51,3,9,3,9,8.9,9
2012/1/27 11:52,3.2,9,3.2,9,8.4,9
2012/1/27 11:53,3,9,3.2,9,4.5,8
2012/1/27 11:54,3.1,9,3.1,9,5.7,8
2012/1/27 11:55,3.1,9,3.2,9,4.4,9
2012/1/27 11:56,3,9,3.1,9,4.4,9
2012/1/27 11:57,3.1,10,3.1,9,7,9
2012/1/27 11:58,3.1,10,3.1,9,6.4,10
2012/1/27 11:59,3.2,10,3.2,9,5.5,11
2012/1/27 12:00,3.2,10,3.2,9,5.8,11
2012/1/27 12:01,3.2,10,3.3,10,6.8,10
2012/1/27 12:02,3.2,10,3.3,10,6,10
2012/1/27 12:03,3.4,10,3.4,10,6,11
2012/1/27 12:04,3.7,10,3.7,10,6.8,10
2012/1/27 12:05,3.9,10,3.9,10,7.7,10
2012/1/27 12:06,4,10,4,10,6.4,9
2012/1/27 12:07,4.1,10,4.1,10,6.7,9
2012/1/27 12:08,3.8,10,4,10,5.5,10
2012/1/27 12:09,3.6,10,3.8,10,3.8,10
2012/1/27 12:10,3.6,10,3.6,10,5.1,9
2012/1/27 12:11,3.6,10,3.6,10,5.2,10
2012/1/27 12:12,3.6,10,3.6,10,6.5,9
2012/1/27 12:13,3.7,10,3.7,10,7.6,11
2012/1/27 12:14,3.7,10,3.7,10,7.6,9
2012/1/27 12:15,3.7,10,3.8,10,6.1,11
2012/1/27 12:16,3.7,10,3.8,10,6,11
2012/1/27 12:17,3.7,10,3.7,10,5.4,11
2012/1/27 12:18,3.7,10,3.7,10,5.6,10
2012/1/27 12:19,3.7,10,3.7,10,5.2,9
2012/1/27 12:20,3.7,10,3.7,10,4.4,11
2012/1/27 12:21,3.5,10,3.7,10,3.9,10
2012/1/27 12:22,3.2,10,3.4,10,3.2,9
2012/1/27 12:23,2.8,10,3.1,10,2.4,10
2012/1/27 12:24,2.4,10,2.7,10,2,9
2012/1/27 12:25,1.9,10,2.3,10,1.3,11
2012/1/27 12:26,1.7,10,1.9,10,1.5,15
2012/1/27 12:27,1.4,11,1.6,10,2.4,13
2012/1/27 12:28,1.4,11,1.4,10,2.7,12
2012/1/27 12:29,1.3,11,1.4,10,1.8,13
2012/1/27 12:30,1.1,12,1.3,10,1.4,12
2012/1/27 12:31,1,12,1.1,10,1,12
2012/1/27 12:32,1,12,1,10,1.5,8
2012/1/27 12:33,0.9,12,1,10,1.4,12
2012/1/27 12:34,0.9,13,0.9,10,1.4,11
2012/1/27 12:35,1,12,1,10,3.1,9
2012/1/27 12:36,1,12,1,10,3.2,8
2012/1/27 12:37,1,12,1,11,2.2,9
2012/1/27 12:38,0.8,11,0.9,11,1.9,8
2012/1/27 12:39,0.8,11,0.8,12,2.2,9
2012/1/27 12:40,0.8,10,0.9,12,2.5,9
2012/1/27 12:41,0.9,10,0.9,12,2.2,10
2012/1/27 12:42,0.9,10,0.9,12,2.7,7
2012/1/27 12:43,0.9,9,0.9,12,3,7
2012/1/27 12:44,1,8,1,12,1.9,7
2012/1/27 12:45,0.9,8,1,12,2,7
2012/1/27 12:46,0.9,8,1,12,1.3,7
2012/1/27 12:47,0.9,8,0.9,9,0.5,6
2012/1/27 12:48,0.8,8,0.9,9,1,13
2012/1/27 12:49,0.8,8,0.8,9,1.4,15
2012/1/27 12:50,0.8,8,0.8,9,1.4,15
2012/1/27 12:51,0.8,7,0.8,9,1.8,2
2012/1/27 12:52,0.9,6,0.9,9,3,2
2012/1/27 12:53,1,3,1,9,6,14
2012/1/27 12:54,1.3,16,1.3,16,8.1,15
2012/1/27 12:55,1.3,16,1.3,16,4.2,15
2012/1/27 12:56,1.6,16,1.6,16,5.6,15
2012/1/27 12:57,2,15,2,15,5.7,15
2012/1/27 12:58,2.2,16,2.2,16,4.9,1
2012/1/27 12:59,2.4,16,2.4,16,5.1,16
2012/1/27 13:00,2.8,16,2.8,16,6.4,15
2012/1/27 13:01,3.2,16,3.2,16,6.7,16
2012/1/27 13:02,3.7,16,3.7,16,7.8,14
2012/1/27 13:03,3.6,16,3.7,16,4.1,16
2012/1/27 13:04,3.5,16,3.6,16,4.9,15
2012/1/27 13:05,3.7,16,3.7,16,6,16
2012/1/27 13:06,3.7,15,3.8,16,4.9,15
2012/1/27 13:07,3.8,15,3.8,16,6.2,15
2012/1/27 13:08,3.8,15,3.8,16,6.7,14
2012/1/27 13:09,3.8,15,3.8,16,4.1,14
2012/1/27 13:10,3.7,15,3.8,16,4.5,13
2012/1/27 13:11,3.5,15,3.7,16,3.7,12
2012/1/27 13:12,3.1,14,3.4,16,2.9,12
2012/1/27 13:13,3,14,3.1,16,3.7,15
2012/1/27 13:14,2.9,15,3,16,4.1,2
2012/1/27 13:15,2.7,15,2.9,16,3.6,4
2012/1/27 13:16,2.5,15,2.7,15,1.9,13
2012/1/27 13:17,2.3,14,2.5,15,1.8,12
2012/1/27 13:18,2,14,2.2,15,1.6,10
2012/1/27 13:19,1.8,14,2,15,2.4,15
2012/1/27 13:20,1.4,14,1.8,15,0.6,14
2012/1/27 13:21,1.3,14,1.4,15,2.6,7
2012/1/27 13:22,1.2,15,1.2,14,2.6,3
2012/1/27 13:23,1.1,6,1.2,14,1.5,8
2012/1/27 13:24,1,7,1.1,15,1,4
2012/1/27 13:25,0.9,10,1,15,2.1,12
2012/1/27 13:26,0.8,10,0.9,15,1.6,13
2012/1/27 13:27,1,10,1,14,4.2,12
2012/1/27 13:28,1.2,11,1.2,14,4.9,14
2012/1/27 13:29,1.2,10,1.3,14,3.9,14
2012/1/27 13:30,1.3,11,1.3,14,1.8,15
2012/1/27 13:31,1.5,12,1.5,12,4.2,12
2012/1/27 13:32,1.6,12,1.6,12,2.6,12
2012/1/27 13:33,1.8,12,1.8,12,4.9,10
2012/1/27 13:34,2.1,12,2.1,12,5.8,10
2012/1/27 13:35,2.3,12,2.3,12,5.4,10
2012/1/27 13:36,2.4,12,2.4,12,5,8
2012/1/27 13:37,2.6,12,2.6,12,6.7,13
2012/1/27 13:38,2.5,12,2.6,12,3.9,10
2012/1/27 13:39,2.4,12,2.5,12,2,15
2012/1/27 13:40,2.5,12,2.5,12,4.7,14
2012/1/27 13:41,2.4,12,2.5,12,3.9,10
2012/1/27 13:42,2.4,12,2.4,12,3,13
2012/1/27 13:43,2.2,12,2.3,12,2.7,13
2012/1/27 13:44,2.2,12,2.2,12,6,10
2012/1/27 13:45,2.1,12,2.2,12,4.4,14
2012/1/27 13:46,2.2,12,2.2,12,3.7,14
2012/1/27 13:47,1.9,12,2.2,12,4.3,9
2012/1/27 13:48,1.9,12,1.9,12,5.5,9
2012/1/27 13:49,1.9,12,2,12,1.8,9
2012/1/27 13:50,1.9,12,2,12,4.9,11
2012/1/27 13:51,2,12,2,12,3.6,10
2012/1/27 13:52,2,12,2,12,4.2,9
2012/1/27 13:53,2.2,12,2.2,12,5.6,12
2012/1/27 13:54,2.2,12,2.2,12,6.2,9
2012/1/27 13:55,2.4,12,2.4,12,7.4,9
2012/1/27 13:56,2.5,11,2.6,11,6.5,11
2012/1/27 13:57,2.6,11,2.6,11,4.3,9
2012/1/27 13:58,2.8,11,2.8,11,8.1,10
2012/1/27 13:59,3.1,11,3.1,11,5.6,11
2012/1/27 14:00,3.1,11,3.1,11,4.1,13
2012/1/27 14:01,3.1,11,3.1,11,3.6,10
2012/1/27 14:02,3.2,11,3.2,11,5.4,11
2012/1/27 14:03,3.1,11,3.2,11,4.1,10
2012/1/27 14:04,3,11,3,11,4.1,13
2012/1/27 14:05,2.6,12,2.9,11,3.1,12
2012/1/27 14:06,2.4,12,2.6,11,3.5,13
2012/1/27 14:07,2.5,12,2.5,11,5,12
2012/1/27 14:08,2.4,12,2.5,11,8.2,10
2012/1/27 14:09,2.5,11,2.5,11,7,10
2012/1/27 14:10,2.5,11,2.5,11,4.3,10
2012/1/27 14:11,2.4,11,2.5,11,4.7,10
2012/1/27 14:12,2.2,11,2.4,11,2,9
2012/1/27 14:13,2.2,11,2.2,11,3.5,9
2012/1/27 14:14,2.4,11,2.4,11,8.5,10
2012/1/27 14:15,2.6,11,2.6,12,7.2,9
2012/1/27 14:16,2.8,10,2.8,11,6,9
2012/1/27 14:17,3,10,3,10,9.1,10
2012/1/27 14:18,2.9,10,3,10,6.2,10
2012/1/27 14:19,2.7,10,2.9,10,5.1,10
2012/1/27 14:20,2.8,10,2.8,10,7,11
2012/1/27 14:21,2.9,10,2.9,10,6,9
2012/1/27 14:22,3.1,10,3.1,10,6.8,10
2012/1/27 14:23,3.4,10,3.4,10,7,13
2012/1/27 14:24,3.5,10,3.5,10,7.4,10
2012/1/27 14:25,3.4,10,3.5,10,7.7,9
2012/1/27 14:26,3.4,11,3.4,10,6.1,8
2012/1/27 14:27,3.3,11,3.4,10,7.9,9
2012/1/27 14:28,3.6,11,3.6,11,7.1,10
2012/1/27 14:29,3.7,11,3.7,11,8.4,10
2012/1/27 14:30,3.8,11,3.8,11,6.8,9
2012/1/27 14:31,4,11,4,11,8.6,10
2012/1/27 14:32,4.1,11,4.1,11,8.2,11
2012/1/27 14:33,4,11,4.1,11,7.7,12
2012/1/27 14:34,4.1,11,4.1,11,8.4,10
2012/1/27 14:35,4.2,11,4.2,11,6.3,10
2012/1/27 14:36,4.2,11,4.2,11,7.2,12
2012/1/27 14:37,4.1,11,4.2,11,7.1,8
2012/1/27 14:38,4.2,11,4.2,11,9,10
2012/1/27 14:39,4.3,11,4.3,11,8.5,13
2012/1/27 14:40,4.6,11,4.6,11,10.6,12
2012/1/27 14:41,4.4,11,4.6,11,7.6,13
2012/1/27 14:42,4.3,11,4.5,11,6,11
2012/1/27 14:43,4.3,12,4.4,11,5.2,12
2012/1/27 14:44,4.1,12,4.3,11,6.2,11
2012/1/27 14:45,4,12,4.1,11,5.1,10
2012/1/27 14:46,3.9,12,4,11,3.2,13
2012/1/27 14:47,3.7,12,3.8,11,4.3,14
2012/1/27 14:48,3.5,13,3.7,11,5.1,16
2012/1/27 14:49,3.3,13,3.5,11,4.4,12
2012/1/27 14:50,2.9,13,3.3,11,4.9,13
2012/1/27 14:51,2.8,13,2.8,11,5.6,14
2012/1/27 14:52,2.7,13,2.8,11,4.5,15
2012/1/27 14:53,2.5,13,2.8,12,3.7,15
2012/1/27 14:54,2.3,13,2.5,12,3.9,14
2012/1/27 14:55,2.3,13,2.4,12,3.8,13
2012/1/27 14:56,2.4,13,2.4,12,4.5,11
2012/1/27 14:57,2.5,13,2.5,12,5.4,10
2012/1/27 14:58,2.5,12,2.5,13,6.1,10
2012/1/27 14:59,2.5,12,2.5,13,6.5,9
2012/1/27 15:00,2.3,12,2.4,13,3.3,11
2012/1/27 15:01,2.2,11,2.3,13,4.7,9
2012/1/27 15:02,2.2,11,2.3,13,5.2,9
2012/1/27 15:03,2.4,11,2.4,13,7.9,9
2012/1/27 15:04,2.8,10,2.8,10,9.1,10
2012/1/27 15:05,3,10,3,10,9.2,9
2012/1/27 15:06,3.1,10,3.1,10,8.5,10
2012/1/27 15:07,3.2,10,3.3,10,9.1,10
2012/1/27 15:08,3.3,11,3.3,10,7.7,11
2012/1/27 15:09,3.5,11,3.5,11,6.5,11
2012/1/27 15:10,3.7,11,3.7,11,7.6,12
2012/1/27 15:11,4,11,4,11,7,10
2012/1/27 15:12,4.1,11,4.1,11,8.4,12
2012/1/27 15:13,4.2,11,4.2,11,7.9,9
2012/1/27 15:14,4.2,11,4.3,11,8.2,12
2012/1/27 15:15,3.9,11,4.2,11,6.9,10
2012/1/27 15:16,3.9,11,3.9,11,7.1,12
2012/1/27 15:17,3.9,11,3.9,11,5.8,13
2012/1/27 15:18,3.7,11,3.9,11,5.4,14
2012/1/27 15:19,3.4,12,3.6,11,5.7,13
2012/1/27 15:20,3.4,12,3.5,11,5.6,12
2012/1/27 15:21,3.1,12,3.3,11,3.5,11
2012/1/27 15:22,3,12,3.1,11,3.5,10
2012/1/27 15:23,3.1,12,3.1,11,7.2,11
2012/1/27 15:24,2.8,12,3,11,3.8,10
2012/1/27 15:25,2.7,11,2.8,11,3.7,9
2012/1/27 15:26,2.5,12,2.8,11,4.5,12
2012/1/27 15:27,2.4,12,2.5,11,5.4,12
2012/1/27 15:28,2.5,11,2.5,11,5.8,13
2012/1/27 15:29,2.7,11,2.7,12,6.7,12
2012/1/27 15:30,2.9,11,2.9,12,7.4,11
2012/1/27 15:31,3.1,11,3.1,12,6.4,11
2012/1/27 15:32,3.2,12,3.2,11,6.1,12
2012/1/27 15:33,3,12,3.2,11,4.1,12
2012/1/27 15:34,2.9,12,3,11,2.7,13
2012/1/27 15:35,3,12,3,11,4.5,12
2012/1/27 15:36,3,12,3,11,2.2,12
2012/1/27 15:37,2.9,12,3,11,4.2,10
2012/1/27 15:38,2.7,12,2.9,11,3.3,13
2012/1/27 15:39,2.5,12,2.7,11,5.4,14
2012/1/27 15:40,2.5,12,2.5,11,9.4,12
2012/1/27 15:41,2.4,12,2.5,11,8.4,10
2012/1/27 15:42,2.1,12,2.4,12,2.2,12
2012/1/27 15:43,2,12,2.1,12,3.8,10
2012/1/27 15:44,2.2,11,2.2,12,5,10
2012/1/27 15:45,2.2,11,2.2,12,3.5,9
2012/1/27 15:46,2.3,11,2.3,12,4.5,9
2012/1/27 15:47,2.3,11,2.3,12,3.8,11
2012/1/27 15:48,2.5,11,2.5,12,6.7,11
2012/1/27 15:49,2.7,10,2.7,10,6.5,11
2012/1/27 15:50,2.4,10,2.8,10,3.1,10
2012/1/27 15:51,2.2,10,2.4,10,3.1,8
2012/1/27 15:52,2.4,10,2.4,10,6.5,10
2012/1/27 15:53,2.7,10,2.7,10,7.2,10
2012/1/27 15:54,2.8,10,2.8,10,6.5,10
2012/1/27 15:55,2.7,10,2.8,10,4.1,9
2012/1/27 15:56,2.5,10,2.6,10,3.9,9
2012/1/27 15:57,2.7,10,2.7,10,4.8,10
2012/1/27 15:58,2.6,10,2.7,10,4.7,11
2012/1/27 15:59,2.6,10,2.6,10,7.5,9
2012/1/27 16:00,2.7,10,2.7,10,5.1,11
2012/1/27 16:01,2.9,10,2.9,10,6.7,11
2012/1/27 16:02,3,10,3,10,6.7,11
2012/1/27 16:03,2.8,10,2.9,10,4.4,9
2012/1/27 16:04,2.7,10,2.8,10,3.3,9
2012/1/27 16:05,2.7,10,2.7,10,4.4,9
2012/1/27 16:06,2.8,10,2.8,10,3.5,8
2012/1/27 16:07,2.7,10,2.7,10,3.8,11
2012/1/27 16:08,2.5,10,2.7,10,1.4,10
2012/1/27 16:09,2.1,10,2.4,10,1.3,15
2012/1/27 16:10,2,11,2.1,10,2.4,14
2012/1/27 16:11,2,11,2.1,10,3.2,14
2012/1/27 16:12,1.7,12,1.9,10,2.2,15
2012/1/27 16:13,1.6,12,1.6,10,2.7,3
2012/1/27 16:14,1.5,13,1.6,10,3.1,9
2012/1/27 16:15,1.7,13,1.7,10,4.9,9
2012/1/27 16:16,1.7,14,1.8,10,4.8,8
2012/1/27 16:17,1.6,15,1.7,10,2.2,8
2012/1/27 16:18,1.7,16,1.7,10,2.7,3
2012/1/27 16:19,1.7,1,1.7,10,1.5,1
2012/1/27 16:20,1.7,2,1.7,11,2,2
2012/1/27 16:21,1.6,3,1.7,11,3.3,1
2012/1/27 16:22,1.6,3,1.6,13,3.3,15
2012/1/27 16:23,1.6,3,1.7,13,2.6,1
2012/1/27 16:24,1.5,4,1.5,13,1.1,8
2012/1/27 16:25,1.2,3,1.4,13,1,8
2012/1/27 16:26,0.9,2,1.1,14,0.3,16
2012/1/27 16:27,1,2,1,16,3.2,16
2012/1/27 16:28,1.1,2,1.1,16,3.5,16
2012/1/27 16:29,1.3,1,1.3,2,6,15
2012/1/27 16:30,1.4,1,1.4,2,3.2,16
2012/1/27 16:31,1.4,1,1.4,3,2.4,16
2012/1/27 16:32,1.2,16,1.4,3,0.8,13
2012/1/27 16:33,1.2,15,1.2,4,1.4,15
2012/1/27 16:34,1.2,15,1.2,4,1.5,14
2012/1/27 16:35,1.3,15,1.3,1,2.2,9
2012/1/27 16:36,1.4,15,1.4,1,2.1,9
2012/1/27 16:37,1.3,14,1.4,1,1.5,9
2012/1/27 16:38,1.2,13,1.3,1,2.2,9
2012/1/27 16:39,1.1,12,1.1,1,3.7,9
2012/1/27 16:40,1.1,11,1.1,1,3.9,9
2012/1/27 16:41,1.2,10,1.2,1,3.7,8
2012/1/27 16:42,1.3,10,1.3,15,2.5,9
2012/1/27 16:43,1.3,9,1.3,15,2,8
2012/1/27 16:44,1.3,9,1.3,15,2,9
2012/1/27 16:45,1.3,9,1.3,15,3,10
2012/1/27 16:46,1.4,10,1.4,15,3.2,10
2012/1/27 16:47,1.6,10,1.6,10,4.5,11
2012/1/27 16:48,1.7,10,1.7,10,2.5,12
2012/1/27 16:49,1.5,10,1.6,10,1.6,12
2012/1/27 16:50,1.4,10,1.5,10,1,14
2012/1/27 16:51,1.3,11,1.4,10,1.6,15
2012/1/27 16:52,1.2,12,1.3,10,1.5,15
2012/1/27 16:53,1.2,12,1.2,10,1.5,15
2012/1/27 16:54,1.1,12,1.2,10,0.8,13
2012/1/27 16:55,1,13,1.1,10,1.3,15
2012/1/27 16:56,0.9,13,1,10,2.1,15
2012/1/27 16:57,0.9,14,0.9,10,1.8,14
2012/1/27 16:58,0.8,14,0.9,10,1.5,15
2012/1/27 16:59,0.8,15,0.8,10,1.6,15
2012/1/27 17:00,0.9,15,0.9,10,2,3
2012/1/27 17:01,1,15,1,11,3.1,16
2012/1/27 17:02,1.2,15,1.2,12,4.3,16
2012/1/27 17:03,1.3,16,1.3,15,3.8,1
2012/1/27 17:04,1.5,16,1.5,16,3.2,1
2012/1/27 17:05,1.6,16,1.6,16,2.1,2
2012/1/27 17:06,1.6,1,1.6,16,2,2
2012/1/27 17:07,1.5,1,1.6,16,1.1,3
2012/1/27 17:08,1.5,1,1.5,16,1.3,1
2012/1/27 17:09,1.4,2,1.5,16,0.6,1
2012/1/27 17:10,1.4,2,1.4,16,0.6,14
2012/1/27 17:11,1.2,1,1.4,16,0.5,13
2012/1/27 17:12,0.9,1,1.2,16,0.5,12
2012/1/27 17:13,0.7,1,0.9,16,0.4,8
2012/1/27 17:14,0.5,1,0.7,16,0.3,7
2012/1/27 17:15,0.4,16,0.5,16,0,8
2012/1/27 17:16,0.2,16,0.4,1,0,2
2012/1/27 17:17,0.2,16,0.2,1,0,2
2012/1/27 17:18,0.1,16,0.2,1,0.3,16
2012/1/27 17:19,0.2,15,0.2,2,0.8,15
2012/1/27 17:20,0.2,16,0.2,1,1.4,16
2012/1/27 17:21,0.3,16,0.3,1,1.5,16
2012/1/27 17:22,0.4,1,0.4,1,1.5,16
2012/1/27 17:23,0.5,1,0.5,1,1.6,16
2012/1/27 17:24,0.5,1,0.5,16,1.5,15
2012/1/27 17:25,0.6,16,0.6,16,1.3,15
2012/1/27 17:26,0.7,16,0.7,16,1.6,15
2012/1/27 17:27,0.8,15,0.8,16,1.4,15
2012/1/27 17:28,0.9,15,0.9,15,1.3,14
2012/1/27 17:29,0.8,15,0.9,15,0.5,14
2012/1/27 17:30,0.8,15,0.8,15,1.6,16
2012/1/27 17:31,0.9,15,0.9,15,2.6,16
2012/1/27 17:32,1,15,1,15,2.7,16
2012/1/27 17:33,1,15,1,15,2.4,16
2012/1/27 17:34,1.1,15,1.1,15,2.7,15
2012/1/27 17:35,1.3,15,1.3,15,2.9,15
2012/1/27 17:36,1.2,15,1.3,15,1.6,16
2012/1/27 17:37,1.2,15,1.2,15,1.9,1
2012/1/27 17:38,1.3,16,1.3,15,2.2,16
2012/1/27 17:39,1.5,15,1.5,15,2.4,15
2012/1/27 17:40,1.5,15,1.5,15,2,15
2012/1/27 17:41,1.5,15,1.6,15,2,16
2012/1/27 17:42,1.5,15,1.5,15,2.1,16
2012/1/27 17:43,1.5,15,1.5,15,1.8,15
2012/1/27 17:44,1.4,15,1.5,15,1.6,15
2012/1/27 17:45,1.3,15,1.4,15,1.6,14
2012/1/27 17:46,1.4,15,1.4,15,1.8,15
2012/1/27 17:47,1.4,15,1.4,15,2,15
2012/1/27 17:48,1.4,15,1.4,15,2.1,16
2012/1/27 17:49,1.4,15,1.4,15,2.4,15
2012/1/27 17:50,1.3,15,1.4,15,2.4,15
2012/1/27 17:51,1.3,15,1.3,15,2.2,15
2012/1/27 17:52,1.3,15,1.4,15,2.4,15
2012/1/27 17:53,1.3,15,1.3,15,1.9,16
2012/1/27 17:54,1.3,15,1.3,15,1.8,16
2012/1/27 17:55,1.3,15,1.3,15,1.5,14
2012/1/27 17:56,1.4,15,1.4,15,2.4,14
2012/1/27 17:57,1.4,15,1.4,15,2.1,14
2012/1/27 17:58,1.4,14,1.4,15,2.5,13
2012/1/27 17:59,1.4,14,1.5,14,2,13
2012/1/27 18:00,1.4,14,1.4,14,2,16
2012/1/27 18:01,1.4,14,1.4,14,2,15
2012/1/27 18:02,1.4,14,1.4,14,3.2,15
2012/1/27 18:03,1.5,14,1.5,14,3.2,16
2012/1/27 18:04,1.6,14,1.6,14,3,16
2012/1/27 18:05,1.7,14,1.7,14,3.6,16
2012/1/27 18:06,1.8,15,1.8,15,3.7,16
2012/1/27 18:07,1.8,15,1.9,15,2.5,16
2012/1/27 18:08,1.7,15,1.8,15,1.4,16
2012/1/27 18:09,1.6,15,1.7,15,1.1,15
2012/1/27 18:10,1.6,15,1.6,15,1.3,12
2012/1/27 18:11,1.6,15,1.6,15,2,11
2012/1/27 18:12,1.4,15,1.6,15,0.6,10
2012/1/27 18:13,1.2,15,1.4,15,1.4,15
2012/1/27 18:14,1.1,15,1.2,15,1.9,15
2012/1/27 18:15,1,15,1.1,15,1.9,15
2012/1/27 18:16,0.9,14,1,15,1.5,15
2012/1/27 18:17,1,14,1,15,3.7,15
2012/1/27 18:18,1,14,1,15,2.6,16
2012/1/27 18:19,1.1,15,1.1,15,2.7,16
2012/1/27 18:20,1.3,15,1.3,15,3.2,15
2012/1/27 18:21,1.5,15,1.5,15,3.2,16
2012/1/27 18:22,1.6,15,1.6,15,2.5,15
2012/1/27 18:23,1.8,15,1.8,15,2.6,15
2012/1/27 18:24,1.8,15,1.8,15,2.2,15
2012/1/27 18:25,1.8,15,1.8,15,2.2,15
2012/1/27 18:26,1.8,15,1.8,15,2.9,15
2012/1/27 18:27,1.8,15,1.9,15,3.6,15
2012/1/27 18:28,1.9,15,1.9,15,3,15
2012/1/27 18:29,1.9,15,1.9,15,2.5,15
2012/1/27 18:30,1.9,15,1.9,15,2.7,13
2012/1/27 18:31,1.7,15,1.9,15,1.5,14
2012/1/27 18:32,1.6,15,1.7,15,1.8,15
2012/1/27 18:33,1.6,15,1.6,15,2,14
2012/1/27 18:34,1.6,15,1.6,15,2.2,16
2012/1/27 18:35,1.6,15,1.6,15,2.4,16
2012/1/27 18:36,1.7,15,1.7,15,3.6,15
2012/1/27 18:37,1.8,15,1.8,15,3.1,15
2012/1/27 18:38,1.8,15,1.8,15,3.1,16
2012/1/27 18:39,1.8,15,1.8,15,2.4,15
2012/1/27 18:40,1.6,15,1.7,15,1.4,15
2012/1/27 18:41,1.6,15,1.6,15,1.8,14
2012/1/27 18:42,1.7,15,1.7,15,2.5,16
2012/1/27 18:43,1.7,15,1.7,15,2.5,15
2012/1/27 18:44,1.7,15,1.7,15,3.2,15
2012/1/27 18:45,1.8,15,1.8,15,3.9,15
2012/1/27 18:46,1.8,15,1.9,15,3.6,16
2012/1/27 18:47,1.8,15,1.8,15,2.9,16
2012/1/27 18:48,1.7,15,1.8,15,2.5,16
2012/1/27 18:49,1.7,15,1.7,15,2.2,15
2012/1/27 18:50,1.7,15,1.8,15,1.3,15
2012/1/27 18:51,1.7,15,1.8,15,1,16
2012/1/27 18:52,1.6,15,1.7,15,1.1,14
2012/1/27 18:53,1.5,15,1.6,15,2,14
2012/1/27 18:54,1.5,15,1.5,15,2.1,16
2012/1/27 18:55,1.3,15,1.5,15,2.9,15
2012/1/27 18:56,1.2,15,1.3,15,2.4,16
2012/1/27 18:57,1,15,1.2,15,0.5,14
2012/1/27 18:58,0.9,15,1,15,1.1,15
2012/1/27 18:59,0.8,15,0.9,15,1,12
2012/1/27 19:00,0.7,14,0.8,15,0.8,14
2012/1/27 19:01,0.7,14,0.7,15,0.9,9
2012/1/27 19:02,0.7,14,0.7,15,1.6,15
2012/1/27 19:03,0.7,14,0.7,15,0.5,15
2012/1/27 19:04,0.5,14,0.7,15,0,14
2012/1/27 19:05,0.4,13,0.5,15,0.1,13
2012/1/27 19:06,0.3,13,0.4,15,0.4,15
2012/1/27 19:07,0.3,14,0.3,15,0.4,16
2012/1/27 19:08,0.2,14,0.3,15,0.1,16
2012/1/27 19:09,0.2,15,0.2,15,0.5,3
2012/1/27 19:10,0.2,15,0.2,14,0.8,1
2012/1/27 19:11,0.2,16,0.2,14,1,1
2012/1/27 19:12,0.2,16,0.3,14,0.9,16
2012/1/27 19:13,0.3,16,0.3,14,1.3,1
2012/1/27 19:14,0.3,1,0.3,14,1,1
2012/1/27 19:15,0.4,1,0.4,13,1.1,2
2012/1/27 19:16,0.4,1,0.5,1,0.8,2
2012/1/27 19:17,0.5,2,0.5,1,1,1
2012/1/27 19:18,0.6,1,0.6,2,1.3,1
2012/1/27 19:19,0.7,1,0.7,1,1.4,1
2012/1/27 19:20,0.7,1,0.7,1,1.3,1
2012/1/27 19:21,0.8,1,0.8,1,1.6,1
2012/1/27 19:22,0.8,1,0.8,1,1.3,2
2012/1/27 19:23,0.8,1,0.8,1,1.4,16
2012/1/27 19:24,0.9,1,0.9,1,2,16
2012/1/27 19:25,1,1,1,1,2.9,16
2012/1/27 19:26,1.2,1,1.2,1,2.5,16
2012/1/27 19:27,1.2,16,1.2,1,1.9,15
2012/1/27 19:28,1.2,16,1.2,1,1.8,1
2012/1/27 19:29,1.2,16,1.2,1,2,1
2012/1/27 19:30,1.3,16,1.3,16,2.1,16
2012/1/27 19:31,1.3,16,1.3,16,2.4,16
2012/1/27 19:32,1.4,16,1.4,16,2,1
2012/1/27 19:33,1.5,16,1.5,16,2.4,16
2012/1/27 19:34,1.5,16,1.5,16,2.5,16
2012/1/27 19:35,1.5,16,1.5,16,2.4,1
2012/1/27 19:36,1.4,1,1.5,16,1.8,1
2012/1/27 19:37,1.4,1,1.4,16,1.4,1
2012/1/27 19:38,1.4,1,1.4,16,1.5,1
2012/1/27 19:39,1.4,1,1.4,16,1.8,1
2012/1/27 19:40,1.4,1,1.4,16,1.6,1
2012/1/27 19:41,1.4,1,1.4,16,2.1,1
2012/1/27 19:42,1.4,1,1.4,16,1.9,16
2012/1/27 19:43,1.3,1,1.4,16,1.9,1
2012/1/27 19:44,1.1,1,1.3,16,0.4,1
2012/1/27 19:45,1,1,1.1,16,0.6,3
2012/1/27 19:46,0.9,1,1,1,0.8,4
2012/1/27 19:47,0.8,1,0.9,1,0.8,2
2012/1/27 19:48,0.8,2,0.8,1,1.6,2
2012/1/27 19:49,0.8,2,0.8,1,1.6,2
2012/1/27 19:50,0.7,2,0.8,1,1,1
2012/1/27 19:51,0.5,2,0.6,1,0.4,6
2012/1/27 19:52,0.4,2,0.5,1,0.4,4
2012/1/27 19:53,0.4,3,0.4,1,0.9,2
2012/1/27 19:54,0.5,3,0.5,1,1.4,3
2012/1/27 19:55,0.5,3,0.5,1,1,2
2012/1/27 19:56,0.5,3,0.5,1,1,4
2012/1/27 19:57,0.5,3,0.5,1,1,4
2012/1/27 19:58,0.4,4,0.5,2,0.5,5
2012/1/27 19:59,0.4,4,0.4,2,0.3,2